Location: ?????
(35.9675°N, 43.8204°E)
Time: 19:51:12
(UTC+00:00)

Daily predictions for brighter satellites

Satellite Brightness Start Highest point End
(mag) Time Altitude Azimuth Time Altitude Azimuth Time Altitude Azimuth
DMSP B5D2-2 4.5 15:53:07 10° NNE 15:58:02 41° E 16:02:57 10° SSE
Cosmos 1624 Rocket 4.1 15:54:30 10° NNW 15:59:51 72° ENE 16:05:09 10° SSE
SME Rocket 3.5 15:57:35 10° NNE 16:01:09 38° ESE 16:05:23 10° S
SL-08 RB Rocket 4.0 15:56:52 10° SSE 16:01:22 51° ENE 16:05:53 10° N
CSL-04 Rocket 3.9 15:57:03 10° SE 16:02:09 49° ENE 16:07:14 10° N
SL-16 R/B 4.0 16:00:05 10° NNE 16:03:17 15° NE 16:06:29 10° E
Cosmos 1420 Rocket 4.3 15:59:17 10° N 16:04:15 45° ENE 16:09:11 10° SE
Cosmos 1340 3.4 16:01:20 10° NNW 16:05:01 57° W 16:08:40 10° S
ARGOS 3.2 16:00:12 10° SSE 16:05:36 82° ENE 16:11:01 10° N
Cosmos 1300 4.4 16:05:21 10° ESE 16:07:25 14° E 16:09:28 10° NE
Cosmos 1455 Rocket 3.3 16:06:33 10° S 16:10:59 77° W 16:15:27 10° N
CENTAUR R/B 4.5 16:05:12 10° N 16:11:28 23° NE 16:18:06 10° E
Cosmos 2056 Rocket 3.5 16:08:22 10° NNW 16:13:30 86° WSW 16:18:39 10° SSE
Cosmos 1452 Rocket 4.4 16:09:24 10° N 16:14:03 30° ENE 16:18:34 10° SE
Cosmos 1892 Rocket 3.7 16:11:21 10° N 16:15:41 78° W 16:20:00 10° S
Cosmos 1980 Rocket 2.2 16:10:20 10° NNW 16:15:59 68° ENE 16:21:34 10° SSE
Cosmos 1697 Rocket 3.4 16:13:33 10° NNW 16:19:01 55° WSW 16:24:29 10° S
OAO 2 Rocket 3.4 16:15:08 10° W 16:20:11 77° S 16:24:35 14° ESE
CZ-2C R/B 2.5 16:17:08 10° W 16:20:14 26° SSW 16:23:09 10° SE
FALCON 9 R/B 3.9 16:17:31 10° WSW 16:24:03 81° S 16:51:32 10° E
CZ-2C R/B 3.1 16:19:05 10° N 16:24:12 64° WNW 16:29:20 10° SSW
Lacrosse 5 3.0 16:19:33 10° NW 16:24:18 41° WSW 16:29:02 10° SSE
OBJECT-B 2.2 16:23:32 16° ESE 16:24:57 21° ENE 16:27:27 10° NNE
SAR-Lupe-4 4.2 16:24:08 10° N 16:27:41 59° WNW 16:31:13 10° SSW
Helios 1A Rocket 2.8 16:24:48 10° SSE 16:28:49 82° ENE 16:32:53 10° N
CZ-4 R/B 3.8 16:33:25 10° SSW 16:36:55 26° W 16:40:27 10° NW
OAO 1 Rocket 4.4 16:33:07 10° W 16:38:26 83° S 16:42:12 20° E
H-2A R/B 4.1 16:35:43 10° SSW 16:40:09 29° W 16:44:30 10° NW
Cosmos 1908 4.1 16:37:46 10° SSW 16:41:31 52° W 16:45:16 10° N
NOSS 3-4 (A) 4.1 16:37:00 10° SSE 16:41:45 27° ESE 16:46:37 10° NE
NOSS 3-4 (C) 4.1 16:37:04 10° SSE 16:41:50 27° ESE 16:46:43 10° NE
ATLAS 5 CENTAUR R/B 1.2 16:41:30 10° SSW 16:45:17 66° ESE 16:49:25 10° NE
Atlas Centaur 2 3.3 16:37:16 10° WSW 16:45:36 58° S 16:51:11 21° ESE
Ariane Rocket 3.5 16:45:11 21° SE 16:48:08 41° ENE 16:52:51 10° N
Cosmos 1953 4.5 16:49:07 10° SW 16:52:40 29° WNW 16:56:14 10° NNW
Cosmos 1072 Rocket 4.4 16:46:58 10° S 16:53:09 72° E 16:59:17 10° N
Cosmos 494 Rocket 3.9 16:49:25 10° SSW 16:54:37 79° ESE 16:59:53 10° NNE
ATLAS 2AS CENTAUR R/B 3.7 16:48:52 10° SSE 16:55:14 28° ESE 17:01:38 10° NE
Cosmos 220 Rocket 4.1 16:51:04 10° N 16:55:26 57° ENE 16:57:22 30° SE
Cosmos 2322 Rocket 3.1 16:50:34 10° N 16:55:34 31° ENE 16:57:26 25° E
SEDSat Delta rocket 4.1 16:49:49 10° WSW 16:56:06 51° S 16:59:02 28° ESE
Cosmos 2228 3.5 16:55:48 30° SE 16:57:10 38° E 17:01:13 10° NNE
OAO 3 Copernicus 4.2 16:53:46 10° W 16:58:51 78° S 17:01:20 30° E
Cosmos 1328 3.7 16:57:02 10° N 17:01:05 88° E 17:03:36 22° S
SL-27 R/B 3.8 17:03:44 25° NE 17:03:44 25° NE 17:05:31 10° NNE
Lacrosse 5 rocket 1.1 16:59:39 10° SW 17:03:33 87° SE 17:07:45 10° NE
Cosmos 1825 Rocket 4.3 17:05:13 10° NNE 17:08:57 33° ENE 17:08:57 33° ENE
Cosmos 1758 Rocket 3.6 17:09:28 10° N 17:13:50 57° E 17:14:36 49° ESE
SJ-6B 3.0 17:12:40 27° S 17:14:32 63° W 17:18:15 10° NNW
Cosmos 1441 Rocket 3.2 17:11:41 10° N 17:15:34 60° E 17:15:40 59° E
Cosmos 1110 Rocket 4.1 17:11:51 10° N 17:16:55 53° ENE 17:18:00 45° ESE
Aurora 2 Rocket 4.3 17:13:22 10° SW 17:16:35 23° S 17:16:35 23° S
Cosmos 1602 Rocket 3.8 17:14:02 10° NNW 17:18:20 67° W 17:20:51 24° S
USA 186 3.7 17:16:10 13° SSW 17:18:35 29° W 17:21:31 10° NW
Cosmos 1833 4.3 17:19:57 31° SSE 17:22:18 50° ESE 17:27:43 10° NNE
Lacrosse 4 Rocket 1.9 17:22:09 10° NW 17:26:23 57° WSW 17:27:27 43° SSW
USA 276 3.0 17:23:33 10° NW 17:25:58 49° WNW 17:25:58 49° WNW
Cosmos 1331 Rocket 3.9 17:23:43 10° N 17:28:51 62° ENE 17:29:30 57° ESE
SPOT 3 Rocket 3.7 17:28:40 49° E 17:29:05 51° ENE 17:34:06 10° N
USA 238 DEB 4.0 17:22:42 10° NNW 17:29:57 60° NE 17:32:27 41° ESE
USA 238 4.0 17:22:49 10° NNW 17:30:03 59° NE 17:32:33 41° ESE
Cosmos 1092 Rocket 4.3 17:28:24 10° N 17:34:23 44° E 17:34:39 43° E
NOSS 3-2 (A) 4.1 17:29:56 10° NNW 17:37:50 83° ENE 17:41:20 41° SE
Cosmos 2237 4.5 17:33:44 10° N 17:39:16 49° ENE 17:39:25 48° ENE
Cosmos 2034 Rocket 4.1 17:35:55 10° SSW 17:42:04 72° W 17:48:16 10° N
Cosmos 2360 Rocket 2.7 17:37:07 10° N 17:42:16 41° ENE 17:42:16 41° ENE
Cosmos 1606 Rocket 3.7 17:41:54 60° SW 17:42:32 71° W 17:46:55 10° N
Resurs 01 Rocket 1.8 17:43:32 63° NNE 17:43:32 63° NNE 17:47:24 10° N
Cosmos 2344 3.6 17:35:54 10° S 17:43:21 49° ESE 17:50:28 10° NE
CZ-4C R/B 2.6 17:39:14 10° SW 17:43:49 54° NW 17:49:15 10° NNE
USA 215 3.2 17:45:36 54° ESE 17:47:14 81° NE 17:53:48 10° NW
SL-16 R/B 2.2 17:42:19 10° NNW 17:47:59 74° WSW 17:49:06 57° S
Meteor 2-10 Rocket 3.3 17:50:11 88° SSE 17:50:14 89° E 17:55:28 10° N
Landsat 7 4.3 17:53:44 52° NNE 17:53:44 52° NNE 17:57:30 10° N
Cosmos 1726 Rocket 4.1 17:56:56 57° NW 17:56:56 57° NW 18:00:44 10° N
OBJECT-B 3.7 17:56:34 13° WSW 17:57:07 13° W 17:58:48 10° WNW
Cosmos 2098 Rocket 4.1 17:53:30 10° N 18:00:09 74° E 18:01:00 67° SE
ATLAS 3B R/B 4.4 17:56:00 10° N 18:00:42 18° NE 18:01:54 18° NE
CENTAUR R/B 3.2 17:54:54 10° NNW 18:03:21 83° ENE 18:05:31 57° SE
Cosmos 2219 Rocket 3.8 17:59:54 10° N 18:03:09 22° NE 18:03:09 22° NE
OAO 2 Rocket 4.5 17:59:57 10° W 18:03:32 35° SW 18:03:32 35° SW
BREEZE M DEB (TANK) 4.0 18:08:36 10° WSW 18:19:06 45° NW 18:20:11 38° N
Cosmos 2333 Rocket 3.4 18:16:03 10° N 18:19:43 32° NNE 18:19:43 32° NNE
Cosmos 1634 Rocket 4.1 18:25:21 73° W 18:25:21 73° W 18:31:38 10° N
Cosmos 2026 Rocket 4.2 18:22:27 10° N 18:27:31 64° NNW 18:27:31 64° NNW
NOSS 3-4 (A) 4.4 18:26:52 10° WSW 18:32:17 41° NW 18:38:01 10° NNE
NOSS 3-4 (C) 4.4 18:26:54 10° WSW 18:32:21 41° NW 18:38:07 10° NNE
Atlas Centaur 2 3.4 18:26:58 10° W 18:33:46 48° SW 18:33:46 48° SW
Cosmos 2322 Rocket 3.5 18:34:30 10° NW 18:39:17 33° W 18:39:17 33° W
NOSS 3-2 (C) 4.2 18:34:40 10° NW 18:42:32 66° WSW 18:42:59 65° SW
BREEZE M DEB (TANK) 4.0 18:29:45 10° NW 18:41:52 57° W 18:41:52 57° W
Lacrosse 5 rocket 4.3 18:41:03 10° WNW 18:43:18 14° NNW 18:45:00 12° N
ATLAS 2AS CENTAUR R/B 3.4 18:37:57 10° SW 18:45:44 62° NW 18:53:32 10° NNE
Terra 4.3 19:01:28 17° N 19:01:28 17° N 19:02:34 10° N
COSMOS 2428 4.3 18:54:36 10° NNW 18:57:27 29° N 18:57:27 29° N
Cosmos 2360 Rocket 4.4 19:21:46 10° NW 19:24:03 19° WNW 19:24:03 19° WNW
Cosmos 2219 Rocket 4.5 19:43:13 10° NW 19:44:53 19° NW 19:44:53 19° NW
ATLAS 3B R/B 4.0 19:45:17 10° NNW 19:49:09 36° NNW 19:49:09 36° NNW
ADEOS II 3.7 23:16:53 10° NNE 23:19:31 30° NNE 23:19:31 30° NNE
SJ 16-02 3.6 23:34:54 22° ENE 23:34:54 22° ENE 23:37:10 10° NE
SL-16 R/B 4.2 23:38:12 21° NW 23:38:12 21° NW 23:40:13 10° NNW
Lacrosse 5 rocket 4.2 23:43:37 10° N 23:46:51 19° NE 23:50:06 10° E
Cosmos 1238 Rocket 4.1 23:41:06 10° N 23:46:16 69° NNE 23:46:16 69° NNE
CZ-2D R/B 4.2 23:44:52 10° NNW 23:46:37 17° NNW 23:46:37 17° NNW
